Tracking 27097 objects as of 29-Mar-2023
HD Live streaming from Space Station
objects crossing your sky now

ONEWEB-0672

Track ONEWEB-0672 now!
10-day predictions
ONEWEB-0672 is classified as:


NORAD ID: 55831
Int'l Code: 2023-029AM
Perigee: 585.9 km
Apogee: 607.7 km
Inclination: 86.5 °
Period: 96.5 minutes
Semi major axis: 6967 km
RCS: Unknown
Launch date: March 9, 2023
Source: United Kingdom (UK)
Launch site: AIR FORCE EASTERN TEST RANGE (AFETR)
Your satellite tracking list
Your tracking list is empty




NASA's NSSDC Master Catalog

Two Line Element Set (TLE):
1 55831U 23029AM  23087.81630417  .00001901  00000-0  18133-3 0  9998
2 55831  86.5094 190.9085 0015654 153.8874 206.3147 14.92654707  2847
Source of the keplerian elements: AFSPC